FW2479 Weather Reports


time (UTC)temp
F
wind
direction
speed
knots
gust
knots
rain 1hr
in
rain 24hr
in
rain mn
in
humidity
%
barometer
mb
20260507010403 58 276 0.0 1.7 0.00 0.02 0.02 93 1006.7
20260507005908 58 161 0.0 0.0 0.00 0.02 0.02 93 1006.7
20260507005402 58 251 0.0 0.0 0.00 0.02 0.02 92 1006.7
20260507004905 58 251 0.0 0.0 0.00 0.02 0.02 92 1006.7
20260507004402 58 271 0.0 0.0 0.00 0.02 0.02 92 1006.8
20260507003904 57 234 0.0 0.9 0.00 0.02 0.02 92 1006.7
20260507003403 57 195 0.0 6.1 0.00 0.02 0.02 92 1006.6
20260507002903 57 235 0.0 6.1 0.00 0.02 0.02 92 1006.8
20260507002409 57 172 0.0 1.7 0.00 0.02 0.02 92 1006.5
20260507002404 57 195 0.0 2.6 0.00 0.02 0.02 92 1006.7
20260507001404 57 185 0.0 3.5 0.00 0.02 0.02 92 1006.5
20260507000904 57 207 0.0 3.5 0.00 0.02 0.02 92 1006.5
20260507000405 57 200 0.0 0.9 0.00 0.02 0.02 92 1006.5
20260506235901 57 245 0.0 0.9 0.00 0.02 0.02 92 1006.5
20260506235359 58 261 0.0 0.9 0.00 0.02 0.02 92 1006.3
20260506234852 58 220 0.0 0.9 0.00 0.02 0.02 92 1006.5
20260506234352 58 227 0.0 1.7 0.00 0.02 0.02 92 1006.5
20260506233854 58 275 0.0 1.7 0.00 0.02 0.02 92 1006.3
20260506233350 58 261 0.0 1.7 0.00 0.02 0.02 91 1006.3
20260506232849 58 227 0.0 0.9 0.00 0.02 0.02 91 1006.3
20260506232331 58 227 0.0 0.9 0.00 0.02 0.02 91 1006.4
20260506231832 58 179 0.0 0.9 0.00 0.02 0.02 91 1006.5
20260506231331 58 199 0.0 0.9 0.00 0.02 0.02 91 1006.3
20260506230832 58 193 0.0 2.6 0.00 0.02 0.02 91 1006.5
20260506230331 58 204 0.0 2.6 0.00 0.02 0.02 90 1006.4
20260506230056 59 195 0.0 0.9 0.01 0.02 0.02 90 1006.4
20260506225331 59 203 0.0 0.0 0.01 0.02 0.02 90 1006.4
20260506224833 59 214 0.0 0.0 0.01 0.02 0.02 91 1006.5
20260506224332 59 213 0.0 0.0 0.01 0.02 0.02 91 1006.4
20260506223832 59 216 0.0 0.0 0.01 0.02 0.02 91 1006.4
20260506223332 59 264 0.0 0.9 0.01 0.02 0.02 91 1006.3
20260506222833 59 207 0.0 1.7 0.01 0.02 0.02 91 1006.3
20260506222330 59 309 0.0 1.7 0.01 0.02 0.02 91 1006.3
20260506221831 59 212 0.0 3.5 0.01 0.02 0.02 91 1006.5
20260506221331 59 219 0.0 3.5 0.01 0.02 0.02 91 1006.4
20260506220831 59 183 0.0 2.6 0.01 0.02 0.02 91 1006.6
20260506220330 59 210 0.0 1.7 0.01 0.02 0.02 91 1006.7
20260506215831 0 192 0.0 0.0 0.00 0.02 0.02 1006.8
20260506215331 59 248 0.0 0.9 0.00 0.02 0.02 90 1006.8
20260506214831 59 248 0.0 0.9 0.00 0.02 0.02 90 1006.8
20260506214331 59 165 0.0 0.0 0.01 0.02 0.02 90 1006.7
20260506213832 59 172 0.0 0.9 0.01 0.02 0.02 90 1006.8
20260506213331 59 217 0.0 0.9 0.01 0.02 0.02 90 1006.8
20260506212823 59 200 0.0 1.7 0.01 0.02 0.02 90 1006.9
20260506212324 59 192 0.0 1.7 0.01 0.02 0.02 90 1007.1
20260506211822 59 199 0.0 1.7 0.01 0.02 0.02 90 1007.1
20260506211321 59 282 0.0 1.7 0.01 0.02 0.02 90 1007.0
20260506211315 59 185 0.0 4.3 0.01 0.02 0.02 90 1007.2
20260506210319 59 193 0.0 4.3 0.01 0.02 0.02 90 1007.1
20260506205820 59 214 0.0 1.7 0.01 0.01 0.02 90 1007.1
20260506205540 60 209 0.0 1.7 0.02 0.01 0.02 89 1007.1
20260506204819 60 197 0.0 0.9 0.02 0.01 0.02 89 1007.2
20260506204320 60 259 0.0 0.0 0.01 0.01 0.01 88 1007.3
20260506203819 60 186 0.0 0.9 0.01 0.01 0.01 88 1007.4
20260506203318 60 178 0.0 0.9 0.01 0.01 0.01 88 1007.4
20260506202819 60 173 0.0 0.9 0.01 0.01 0.01 88 1007.4
20260506202806 60 169 0.0 4.3 0.01 0.01 0.01 87 1007.4
20260506201818 60 180 0.0 4.3 0.01 0.01 0.01 87 1007.5
20260506201317 61 209 0.0 0.0 0.01 0.01 0.01 87 1007.5
20260506200819 61 185 0.0 0.0 0.01 0.01 0.01 87 1007.4
20260506200803 61 161 0.0 0.9 0.01 0.01 0.01 87 1007.5
20260506195819 61 186 0.0 0.9 0.01 0.00 0.01 86 1007.5
20260506195317 61 228 0.0 2.6 0.00 0.00 0.00 86 1007.5
20260506195038 62 203 0.0 2.6 0.00 0.00 0.00 85 1007.4
20260506194317 62 171 0.0 0.9 0.00 0.00 0.00 84 1007.3
20260506193820 62 202 0.0 0.9 0.00 0.00 0.00 83 1007.3
20260506193317 62 214 0.0 6.1 0.00 0.00 0.00 82 1007.5
20260506192817 63 310 0.9 6.1 0.00 0.00 0.00 82 1007.8
20260506192542 63 186 0.0 0.9 0.00 0.00 0.00 81 1007.7
20260506191819 64 258 0.0 0.0 0.00 0.00 0.00 80 1007.7
20260506191535 64 274 0.0 7.8 0.00 0.00 0.00 79 1007.6
20260506190818 64 166 0.0 7.8 0.00 0.00 0.00 79 1007.7
20260506190316 65 262 0.0 3.5 0.00 0.00 0.00 77 1007.7
20260506190041 66 193 0.0 0.0 0.00 0.00 0.00 72 1007.8
20260506185314 67 180 0.0 0.0 0.00 0.00 0.00 72 1007.7
20260506184813 67 180 0.0 0.9 0.00 0.00 0.00 72 1007.7
20260506184312 67 227 0.0 0.9 0.00 0.00 0.00 71 1007.7
20260506183813 67 209 0.0 0.9 0.00 0.00 0.00 71 1007.7
20260506183313 68 161 0.0 0.9 0.00 0.00 0.00 70 1007.7
20260506182813 68 255 0.0 0.9 0.00 0.00 0.00 70 1007.9
20260506182311 68 142 0.0 1.7 0.00 0.00 0.00 68 1007.9
20260506181812 69 127 0.0 1.7 0.00 0.00 0.00 68 1008.0
20260506181312 69 269 0.0 2.6 0.00 0.00 0.00 68 1007.9
20260506181303 69 271 0.0 2.6 0.00 0.00 0.00 67 1007.8
20260506180311 69 217 0.0 0.0 0.00 0.00 0.00 66 1007.9
20260506175813 69 255 0.0 8.7 0.00 0.00 0.00 67 1008.0
20260506175311 70 182 1.7 8.7 0.00 0.00 0.00 66 1008.0
20260506174811 70 224 0.0 0.9 0.00 0.00 0.00 65 1008.2
20260506174310 70 183 0.0 4.3 0.00 0.00 0.00 66 1008.1
20260506173813 70 192 0.0 9.6 0.00 0.00 0.00 64 1008.0
20260506173310 70 268 1.7 9.6 0.00 0.00 0.00 64 1008.2
20260506172811 71 165 0.0 6.1 0.00 0.00 0.00 63 1008.3
20260506172311 71 207 0.0 3.5 0.00 0.00 0.00 63 1008.3
20260506171807 72 255 0.0 6.1 0.00 0.00 0.00 62 1008.5
20260506171753 72 275 0.9 6.1 0.00 0.00 0.00 63 1008.1
20260506170808 71 220 0.0 4.3 0.00 0.00 0.00 63 1008.2
20260506170309 71 281 0.9 4.3 0.00 0.00 0.00 63 1008.2
20260506165810 72 275 0.0 1.7 0.00 0.00 0.00 63 1008.3
20260506165309 72 176 0.0 4.3 0.00 0.00 0.00 63 1008.4
20260506165254 71 307 0.0 4.3 0.00 0.00 0.00 63 1008.4
20260506164308 71 140 0.0 0.0 0.00 0.00 0.00 64 1008.5
20260506164026 71 178 0.0 3.5 0.00 0.00 0.00 65 1008.6
20260506163528 71 178 0.0 3.5 0.00 0.00 0.00 64 1008.6
20260506162808 71 351 0.0 6.1 0.00 0.00 0.00 64 1008.7
20260506162307 71 345 0.0 6.1 0.00 0.00 0.00 63 1008.9
20260506161808 71 176 0.0 1.7 0.00 0.00 0.00 64 1008.8
20260506161528 71 196 0.0 0.9 0.00 0.00 0.00 62 1008.9
20260506160808 71 204 0.0 0.9 0.00 0.00 0.00 62 1009.0
20260506160307 72 252 0.0 1.7 0.00 0.00 0.00 63 1009.1
20260506160032 72 240 0.0 1.7 0.00 0.00 0.00 63 1009.1
20260506155532 72 220 0.0 4.3 0.00 0.00 0.00 64 1009.2
20260506155028 71 216 0.9 4.3 0.00 0.00 0.00 64 1009.1
20260506154307 71 197 0.0 2.6 0.00 0.00 0.00 64 1009.3
20260506153809 71 272 0.0 2.6 0.00 0.00 0.00 64 1009.4
20260506153306 71 207 0.0 2.6 0.00 0.00 0.00 63 1009.4
20260506152807 71 220 0.0 9.6 0.00 0.00 0.00 64 1009.4
20260506152306 71 292 0.0 9.6 0.00 0.00 0.00 64 1009.5
20260506151807 71 183 0.0 6.1 0.00 0.00 0.00 66 1009.5
20260506151532 71 309 0.0 2.6 0.00 0.00 0.00 67 1009.7
20260506150807 70 251 0.0 6.1 0.00 0.00 0.00 66 1009.6
20260506150306 70 165 0.0 6.1 0.00 0.00 0.00 66 1009.7
20260506150032 70 231 0.0 1.7 0.00 0.00 0.00 66 1009.8
20260506145524 70 258 0.0 1.7 0.00 0.00 0.00 67 1009.7
20260506144806 70 290 0.0 0.9 0.00 0.00 0.00 66 1009.7
20260506144303 70 169 0.0 2.6 0.00 0.00 0.00 67 1009.8
20260506144250 70 223 0.0 4.3 0.00 0.00 0.00 66 1009.7
20260506143302 70 241 0.0 4.3 0.00 0.00 0.00 67 1009.7
20260506142802 70 178 0.0 0.9 0.00 0.00 0.00 67 1009.7
20260506142305 70 275 0.0 4.3 0.00 0.00 0.00 67 1009.4
20260506141802 70 223 0.0 5.2 0.00 0.00 0.00 67 1009.5
20260506141304 69 202 0.0 5.2 0.00 0.00 0.00 67 1009.6
20260506140802 69 219 0.0 8.7 0.00 0.00 0.00 67 1009.8
20260506140303 69 248 0.9 8.7 0.00 0.00 0.00 68 1009.5
20260506140026 69 258 0.0 5.2 0.00 0.00 0.00 67 1009.6
20260506135305 69 131 0.0 0.9 0.00 0.00 0.00 68 1009.6
20260506135033 69 210 0.0 0.0 0.00 0.00 0.00 70 1009.4
20260506134302 69 210 0.0 0.0 0.00 0.00 0.00 70 1009.5
20260506133802 69 182 0.0 0.0 0.00 0.00 0.00 71 1009.6
20260506133302 68 223 0.0 0.9 0.00 0.00 0.00 71 1009.7
20260506132802 68 118 0.0 0.9 0.00 0.00 0.00 73 1010.0
20260506132301 67 203 0.0 0.9 0.00 0.00 0.00 73 1010.2
20260506132027 66 281 0.0 0.0 0.00 0.00 0.00 74 1010.1
20260506131520 66 171 0.0 0.0 0.00 0.00 0.00 75 1010.2
20260506130803 66 226 0.0 1.7 0.00 0.00 0.00 76 1010.3
20260506130301 65 230 0.0 1.7 0.00 0.00 0.00 76 1010.3
20260506125801 65 207 0.0 0.0 0.00 0.00 0.00 77 1010.2
20260506125300 65 193 0.0 0.9 0.00 0.00 0.00 78 1010.2
20260506124802 64 224 0.0 0.9 0.00 0.00 0.00 79 1010.3
20260506124301 63 175 0.0 0.0 0.00 0.00 0.00 79 1010.3
20260506123802 63 169 0.0 0.0 0.00 0.00 0.00 80 1010.2
20260506123300 63 195 0.0 0.9 0.00 0.00 0.00 80 1010.4
20260506122801 63 185 0.0 0.9 0.00 0.00 0.00 80 1010.3
20260506122523 62 237 0.0 0.0 0.00 0.00 0.00 81 1010.4
20260506121801 62 197 0.0 0.0 0.00 0.00 0.00 81 1010.3
20260506121527 62 210 0.0 0.0 0.00 0.00 0.00 82 1010.1
20260506120801 61 186 0.0 0.9 0.00 0.00 0.00 82 1010.1
20260506120522 61 207 0.0 0.9 0.00 0.00 0.00 83 1010.2
20260506120026 61 145 0.0 0.9 0.00 0.00 0.00 84 1010.4
20260506115300 60 197 0.0 0.0 0.00 0.00 0.00 84 1010.5
20260506114759 60 196 0.0 0.0 0.00 0.00 0.00 84 1010.5
20260506114259 60 197 0.0 0.0 0.00 0.00 0.00 84 1010.6
20260506113801 60 192 0.0 0.0 0.00 0.00 0.00 84 1010.7
20260506113258 60 193 0.0 1.7 0.00 0.00 0.00 84 1010.7
20260506112759 60 172 0.0 1.7 0.00 0.00 0.00 84 1010.8
20260506112258 59 213 0.0 0.9 0.00 0.00 0.00 84 1010.7
20260506111759 59 216 0.0 0.9 0.00 0.00 0.00 85 1010.8
20260506111258 59 189 0.0 0.0 0.00 0.00 0.00 84 1010.7
20260506110800 59 206 0.0 0.0 0.00 0.00 0.00 85 1010.6
20260506110258 59 250 0.0 0.0 0.00 0.00 0.00 85 1010.5
20260506105759 59 251 0.0 0.9 0.00 0.00 0.00 85 1010.5
20260506105518 59 185 0.0 0.9 0.00 0.00 0.00 85 1010.6
20260506104759 59 45 0.0 0.0 0.00 0.00 0.00 84 1010.5
20260506104513 59 178 0.0 0.9 0.00 0.00 0.00 84 1010.7
20260506103757 59 178 0.0 0.9 0.00 0.00 0.00 84 1010.5
20260506103256 59 158 0.0 0.9 0.00 0.00 0.00 84 1010.6
20260506102756 59 180 0.0 0.9 0.00 0.00 0.00 84 1010.7
20260506102256 59 196 0.0 1.7 0.00 0.00 0.00 84 1010.6
20260506101755 59 207 0.0 1.7 0.00 0.00 0.00 84 1010.5
20260506101255 59 202 0.0 0.0 0.00 0.00 0.00 84 1010.5
20260506101018 59 183 0.0 0.0 0.00 0.00 0.00 84 1010.5
20260506100256 59 183 0.0 0.0 0.00 0.00 0.00 84 1010.5
20260506095755 59 196 0.0 0.0 0.00 0.00 0.00 84 1010.4
20260506095256 59 207 0.0 0.0 0.00 0.00 0.00 84 1010.4
20260506094754 59 206 0.0 0.0 0.00 0.00 0.00 84 1010.4
20260506094255 59 206 0.0 0.0 0.00 0.00 0.00 83 1010.3
20260506093756 59 206 0.0 0.0 0.00 0.00 0.00 83 1010.3
20260506093254 59 203 0.0 0.0 0.00 0.00 0.00 83 1010.2
20260506092754 60 203 0.0 0.0 0.00 0.00 0.00 83 1010.4
20260506092521 60 220 0.0 0.0 0.00 0.00 0.00 83 1010.3
20260506091754 60 226 0.0 0.0 0.00 0.00 0.00 82 1010.4
20260506091516 60 235 0.0 0.0 0.00 0.00 0.00 82 1010.4
20260506090754 60 192 0.0 0.9 0.00 0.00 0.00 82 1010.4
20260506090232 60 179 0.0 0.9 0.00 0.00 0.00 82 1010.4
20260506085731 60 210 0.0 0.9 0.00 0.00 0.00 82 1010.4
20260506085230 60 192 0.0 0.0 0.00 0.00 0.00 82 1010.5
20260506084732 0 0.0 0.0 0.00 0.00 0.00 1010.5
20260506084204 61 206 0.0 0.0 0.00 0.00 0.00 81 1010.6
20260506083923 61 206 0.0 0.0 0.00 0.00 0.00 81 1010.6
20260506083202 61 224 0.0 0.0 0.00 0.00 0.00 81 1010.6
20260506082702 61 224 0.0 0.0 0.00 0.00 0.00 81 1010.6
20260506082203 61 216 0.0 0.0 0.00 0.00 0.00 81 1010.6
20260506081704 61 216 0.0 0.0 0.00 0.00 0.00 80 1010.6
20260506081202 61 231 0.0 1.7 0.00 0.00 0.00 80 1010.6
20260506080702 61 231 0.0 3.5 0.00 0.00 0.00 80 1010.6
20260506080202 61 262 0.0 3.5 0.00 0.00 0.00 80 1010.5
20260506073202 61 185 0.0 0.9 0.00 0.00 0.00 80 1010.6
20260506072702 61 240 0.0 3.5 0.00 0.00 0.00 79 1010.5
20260506072202 61 228 0.0 3.5 0.00 0.00 0.00 79 1010.5
20260506071702 61 276 0.0 0.0 0.00 0.00 0.00 79 1010.6
20260506071422 61 296 0.0 0.0 0.00 0.00 0.00 79 1010.4
20260506070922 61 196 0.0 0.9 0.00 0.00 0.00 79 1010.4
20260506070204 61 323 0.0 0.9 0.00 0.00 0.00 79 1010.4
20260506062203 62 186 0.0 3.5 0.00 0.00 0.00 77 1010.4
20260506061703 62 200 0.0 3.5 0.00 0.00 0.00 77 1010.4
20260506061640 62 255 0.0 3.5 0.00 0.00 0.00 77 1010.4
20260506060704 62 185 0.0 0.0 0.00 0.00 0.00 77 1010.4
20260506060423 62 269 0.0 0.0 0.00 0.00 0.00 76 1010.4
20260506050419 63 196 0.0 0.0 0.00 0.00 0.00 72 1010.7
20260506044707 63 214 0.0 1.7 0.00 0.00 0.00 72 1011.0
20260506044203 63 224 0.0 4.3 0.00 0.00 0.00 72 1011.0
20260506043702 63 216 0.0 4.3 0.00 0.00 0.00 71 1010.9
20260506043202 63 155 0.0 0.9 0.00 0.00 0.00 71 1010.9
20260506042703 63 197 0.0 0.9 0.00 0.00 0.00 71 1010.9
20260506042201 63 203 0.0 0.0 0.00 0.00 0.00 71 1010.9
20260506041702 63 233 0.0 0.9 0.00 0.00 0.00 70 1010.9
20260506041202 63 233 0.0 1.7 0.00 0.00 0.00 70 1010.8
20260506040703 63 195 0.0 1.7 0.00 0.00 0.00 70 1010.8
20260506040203 63 203 0.0 0.9 0.00 0.00 0.00 70 1010.8
20260506035703 63 245 0.0 0.9 0.00 0.00 0.00 69 1010.7
20260506035204 63 245 0.0 4.3 0.00 0.00 0.00 69 1010.7
20260506034702 63 202 0.0 4.3 0.00 0.00 0.00 69 1010.7
20260506034203 63 190 0.0 0.9 0.00 0.00 0.00 69 1010.7
20260506033929 63 192 0.0 0.9 0.00 0.00 0.00 69 1010.7
20260506033204 64 188 0.0 1.7 0.00 0.00 0.00 69 1010.7
20260506032703 64 251 0.0 1.7 0.00 0.00 0.00 68 1010.8
20260506032202 64 193 0.0 1.7 0.00 0.00 0.00 68 1010.7
20260506031702 64 72 0.0 3.5 0.00 0.00 0.00 68 1010.5
20260506031202 64 188 0.0 4.3 0.00 0.00 0.00 68 1010.7
20260506030702 64 200 0.0 7.8 0.00 0.00 0.00 68 1010.7
20260506030643 64 247 0.0 7.8 0.00 0.00 0.00 68 1010.7
20260506025702 63 321 0.0 1.7 0.00 0.00 0.00 68 1010.6
20260506025202 63 196 0.0 1.7 0.00 0.00 0.00 69 1010.5
20260506024702 63 212 0.0 1.7 0.00 0.00 0.00 69 1010.6
20260506024204 63 250 0.0 1.7 0.00 0.00 0.00 69 1010.6
20260506023702 63 224 0.0 6.1 0.00 0.00 0.00 69 1010.6
20260506023201 63 307 0.0 6.1 0.00 0.00 0.00 69 1010.7
20260506022702 63 202 0.0 1.7 0.00 0.00 0.00 69 1010.6
20260506022426 63 197 0.0 1.7 0.00 0.00 0.00 69 1010.6
20260506021702 63 214 0.0 0.9 0.00 0.00 0.00 69 1010.8
20260506021203 63 188 0.0 0.0 0.00 0.00 0.00 69 1010.6
20260506020702 63 188 0.0 1.7 0.00 0.00 0.00 69 1010.7
20260506020202 63 221 0.0 1.7 0.00 0.00 0.00 69 1010.5
20260506015702 63 172 0.0 1.7 0.00 0.00 0.00 68 1010.6
20260506015202 63 274 0.0 1.7 0.00 0.00 0.00 68 1010.5
20260506014702 63 192 0.0 0.9 0.00 0.00 0.00 68 1010.6
20260506014202 63 320 0.0 0.9 0.00 0.00 0.00 68 1010.7
20260506013702 63 276 0.0 1.7 0.00 0.00 0.00 68 1010.7
20260506013425 63 340 0.0 1.7 0.00 0.00 0.00 67 1010.6
20260506012702 63 193 0.0 0.9 0.00 0.00 0.00 67 1010.5
20260506012204 63 338 0.0 2.6 0.00 0.00 0.00 67 1010.5
20260506011635 63 183 0.0 2.6 0.00 0.00 0.00 66 1010.4
20260506011133 64 203 0.0 0.9 0.00 0.00 0.00 66 1010.3